Location: Berkeley
(37.8716°N, 122.2727°W)
Time: 14:47:30
(UTC-07:00)

Tiangong - Pass Details

Date: 26 September 2021
Orbit: 382 x 385 km, 41.5° (Epoch: 16 October)

Event Time Altitude Azimuth Distance (km) Brightness Sun altitude
Exits shadow 06:10:51 15° 241° (WSW) 1,137 2.9 -10.6°
Maximum altitude 06:13:20 71° 157° (SSE) 405 1.2 -10.2°
Drops below altitude 10° 06:16:28 10° 74° (ENE) 1,396 5.4 -9.5°
Sets 06:18:33 0° 72° (ENE) 2,250 6.8 -9.1°
